Location: Lake Sonoma
(38.7200°N, 123.0564°W)
Time: 03:06:11
(UTC-07:00)

ISS - Visible Passes

Search period start: 19 April 2014 00:00
Search period end: 29 April 2014 00:00
Orbit: 414 x 419 km, 51.6° (Epoch: 19 April)

Date Brightness Start Highest point End Pass type
(mag) Time Alt. Az. Time Alt. Az. Time Alt. Az.
19 Apr -0.9 20:47:54 10° NNW 20:50:06 16° NNE 20:52:18 10° ENE visible
19 Apr -1.0 22:23:55 10° NW 22:25:29 25° NW 22:25:29 25° NW visible
20 Apr -2.8 21:35:34 10° NW 21:38:50 47° NE 21:39:00 47° NE visible
21 Apr -1.9 20:47:16 10° NNW 20:50:17 30° NNE 20:52:32 15° E visible
21 Apr -0.8 22:24:00 10° WNW 22:25:26 20° W 22:25:26 20° W visible
22 Apr -3.0 21:35:16 10° WNW 21:38:34 56° SW 21:38:58 52° S visible
23 Apr -3.3 20:46:41 10° NW 20:50:03 78° NE 20:52:30 17° SE visible
24 Apr -1.1 21:35:30 10° W 21:37:54 18° SW 21:38:59 16° SSW visible
25 Apr -1.9 20:46:21 10° WNW 20:49:24 33° SW 20:52:26 10° SSE visible
27 Apr -0.4 20:47:15 10° WSW 20:48:21 11° SW 20:49:27 10° SSW visible
